When you browse on this site, cookies collect data to enhance your experience and personalize the content and advertising you see.
Visit our Privacy Policy to learn more. By continuing to use the site, you agree to this use of cookies and data.
  • En España
  • Lista de países
  • Para 7 días
  • Temperatura del agua
  • El tiempo en el mapa
  • Informadores
  • user-avatar
    Iniciar sesión

    Tiempo cada hora Chelmsford

    Hoy, 29 Marzo, Domingo

    Tiempo Temperatura Precipitaciones Viento Presión Humedad
    00:00 +1°C° 0 mm 6 mps 772 mmHg 77%
    01:00 +1°C° 0 mm 6 mps 772 mmHg 76%
    02:00 -1°C° 0 mm 7 mps 772 mmHg 75%
    03:00 -1°C° 0 mm 7 mps 772 mmHg 74%
    04:00 -1°C° 0 mm 7 mps 772 mmHg 74%
    05:00 -1°C° 0 mm 7 mps 772 mmHg 74%
    06:00 -2°C° 0 mm 7 mps 773 mmHg 78%
    07:00 0°C° 0 mm 8 mps 773 mmHg 73%
    08:00 +1°C° 0 mm 9 mps 773 mmHg 68%
    09:00 +3°C° 0 mm 11 mps 774 mmHg 63%
    10:00 +3°C° 0.1 mm 11 mps 774 mmHg 60%
    11:00 +3°C° 0.1 mm 11 mps 774 mmHg 57%
    12:00 +5°C° 0 mm 10 mps 775 mmHg 55%
    13:00 +5°C° 0 mm 10 mps 775 mmHg 53%
    14:00 +3°C° 0 mm 10 mps 775 mmHg 52%
    15:00 +3°C° 0 mm 10 mps 775 mmHg 50%
    16:00 +2°C° 0 mm 9 mps 775 mmHg 53%
    17:00 +1°C° 0 mm 8 mps 775 mmHg 57%
    18:00 0°C° 0 mm 7 mps 776 mmHg 60%
    19:00 -1°C° 0 mm 7 mps 776 mmHg 64%
    20:00 -1°C° 0 mm 7 mps 776 mmHg 67%
    21:00 -2°C° 0 mm 6 mps 776 mmHg 71%
    22:00 -2°C° 0 mm 6 mps 776 mmHg 74%
    23:00 -2°C° 0 mm 5 mps 776 mmHg 78%

    Mañana, 30 Marzo, Lunes

    Tiempo Temperatura Precipitaciones Viento Presión Humedad
    00:00 -2°C° 0 mm 4 mps 775 mmHg 81%
    01:00 -2°C° 0 mm 4 mps 775 mmHg 83%
    02:00 -3°C° 0 mm 4 mps 774 mmHg 86%
    03:00 -3°C° 0 mm 4 mps 774 mmHg 88%
    04:00 -2°C° 0 mm 4 mps 774 mmHg 89%
    05:00 -1°C° 0 mm 4 mps 773 mmHg 91%
    06:00 -1°C° 0 mm 4 mps 773 mmHg 92%
    07:00 0°C° 0.1 mm 4 mps 773 mmHg 90%
    08:00 +1°C° 0.1 mm 4 mps 773 mmHg 89%
    09:00 +3°C° 0.1 mm 4 mps 772 mmHg 87%
    10:00 +3°C° 0.1 mm 5 mps 772 mmHg 82%
    11:00 +5°C° 0.1 mm 5 mps 772 mmHg 77%
    12:00 +6°C° 0.1 mm 5 mps 772 mmHg 72%
    13:00 +7°C° 0.2 mm 6 mps 771 mmHg 71%
    14:00 +7°C° 0.2 mm 6 mps 771 mmHg 70%
    15:00 +7°C° 0.2 mm 6 mps 770 mmHg 68%
    16:00 +5°C° 0.1 mm 6 mps 770 mmHg 73%
    17:00 +6°C° 0.1 mm 5 mps 770 mmHg 77%
    18:00 +5°C° 0.1 mm 5 mps 770 mmHg 81%
    19:00 +3°C° 0 mm 5 mps 770 mmHg 84%
    20:00 +2°C° 0 mm 5 mps 770 mmHg 87%
    21:00 +1°C° 0 mm 5 mps 770 mmHg 90%
    22:00 0°C° 0 mm 4 mps 770 mmHg 90%
    23:00 0°C° 0 mm 4 mps 770 mmHg 91%

    Pasado mañana, 31 Marzo, Martes

    Tiempo Temperatura Precipitaciones Viento Presión Humedad
    00:00 0°C° 0 mm 4 mps 771 mmHg 91%
    01:00 0°C° 0 mm 4 mps 770 mmHg 89%
    02:00 0°C° 0 mm 5 mps 770 mmHg 87%
    03:00 +1°C° 0 mm 5 mps 770 mmHg 85%
    04:00 +1°C° 0 mm 5 mps 770 mmHg 85%
    05:00 0°C° 0 mm 5 mps 771 mmHg 85%
    06:00 0°C° 0 mm 4 mps 771 mmHg 85%
    07:00 +1°C° 0 mm 4 mps 771 mmHg 77%
    08:00 +3°C° 0 mm 5 mps 771 mmHg 69%
    09:00 +6°C° 0 mm 5 mps 771 mmHg 61%
    10:00 +6°C° 0 mm 5 mps 771 mmHg 59%
    11:00 +7°C° 0 mm 4 mps 771 mmHg 56%
    12:00 +8°C° 0 mm 4 mps 771 mmHg 54%
    13:00 +7°C° 0 mm 4 mps 771 mmHg 56%
    14:00 +7°C° 0 mm 4 mps 770 mmHg 57%
    15:00 +7°C° 0 mm 4 mps 770 mmHg 59%
    16:00 +7°C° 0 mm 3 mps 770 mmHg 64%
    17:00 +5°C° 0 mm 3 mps 769 mmHg 69%
    18:00 +6°C° 0 mm 2 mps 769 mmHg 74%
    19:00 +4°C° 0 mm 2 mps 769 mmHg 77%
    20:00 +3°C° 0 mm 2 mps 769 mmHg 81%
    21:00 +2°C° 0 mm 2 mps 769 mmHg 85%
    22:00 +2°C° 0 mm 2 mps 769 mmHg 86%
    23:00 +1°C° 0 mm 2 mps 769 mmHg 87%

    1 Abril, Miércoles

    Tiempo Temperatura Precipitaciones Viento Presión Humedad
    00:00 +1°C° 0 mm 2 mps 768 mmHg 88%
    01:00 +2°C° 0 mm 1 mps 768 mmHg 88%
    02:00 +2°C° 0 mm 1 mps 767 mmHg 87%
    03:00 +2°C° 0 mm 1 mps 767 mmHg 87%
    04:00 +2°C° 0 mm 1 mps 766 mmHg 86%
    05:00 +2°C° 0 mm 1 mps 766 mmHg 85%
    06:00 +2°C° 0 mm 1 mps 766 mmHg 84%
    07:00 +3°C° 0 mm 2 mps 766 mmHg 78%
    08:00 +4°C° 0 mm 2 mps 765 mmHg 73%
    09:00 +6°C° 0 mm 2 mps 765 mmHg 67%
    10:00 +7°C° 0 mm 2 mps 765 mmHg 65%
    11:00 +7°C° 0 mm 2 mps 765 mmHg 63%
    12:00 +8°C° 0 mm 2 mps 764 mmHg 60%
    13:00 +8°C° 0 mm 3 mps 764 mmHg 62%
    14:00 +8°C° 0 mm 3 mps 763 mmHg 63%
    15:00 +8°C° 0 mm 3 mps 763 mmHg 64%
    16:00 +7°C° 0 mm 3 mps 762 mmHg 67%
    17:00 +7°C° 0 mm 2 mps 762 mmHg 70%
    18:00 +6°C° 0 mm 2 mps 762 mmHg 73%
    19:00 +6°C° 0 mm 2 mps 762 mmHg 73%
    20:00 +6°C° 0 mm 2 mps 762 mmHg 73%
    21:00 +6°C° 0 mm 2 mps 762 mmHg 74%
    22:00 +5°C° 0 mm 2 mps 761 mmHg 78%
    23:00 +4°C° 0 mm 2 mps 761 mmHg 82%

    2 Abril, Jueves

    Tiempo Temperatura Precipitaciones Viento Presión Humedad
    00:00 +3°C° 0 mm 3 mps 761 mmHg 85%
    01:00 +2°C° 0 mm 3 mps 761 mmHg 88%
    02:00 +2°C° 0 mm 3 mps 760 mmHg 90%
    03:00 +1°C° 0 mm 3 mps 760 mmHg 92%
    04:00 +1°C° 0 mm 3 mps 760 mmHg 93%
    05:00 +1°C° 0 mm 3 mps 759 mmHg 93%
    06:00 +1°C° 0 mm 3 mps 759 mmHg 94%
    07:00 +3°C° 0 mm 3 mps 759 mmHg 90%
    08:00 +5°C° 0 mm 4 mps 759 mmHg 85%
    09:00 +6°C° 0 mm 4 mps 759 mmHg 81%
    10:00 +8°C° 0 mm 4 mps 758 mmHg 75%
    11:00 +10°C° 0 mm 4 mps 758 mmHg 70%
    12:00 +10°C° 0 mm 5 mps 758 mmHg 64%
    13:00 +10°C° 0.1 mm 5 mps 758 mmHg 64%
    14:00 +10°C° 0.1 mm 5 mps 757 mmHg 63%
    15:00 +10°C° 0.1 mm 5 mps 757 mmHg 63%
    16:00 +10°C° 0 mm 5 mps 756 mmHg 68%
    17:00 +9°C° 0 mm 5 mps 756 mmHg 73%
    18:00 +8°C° 0 mm 4 mps 756 mmHg 78%
    19:00 +7°C° 0 mm 5 mps 756 mmHg 81%
    20:00 +7°C° 0 mm 5 mps 756 mmHg 83%
    21:00 +6°C° 0 mm 5 mps 756 mmHg 86%
    22:00 +5°C° 0 mm 5 mps 756 mmHg 86%
    23:00 +5°C° 0 mm 5 mps 757 mmHg 86%

    3 Abril, Viernes

    Tiempo Temperatura Precipitaciones Viento Presión Humedad
    00:00 +3°C° 0 mm 5 mps 757 mmHg 87%
    01:00 +2°C° 0 mm 5 mps 757 mmHg 86%
    02:00 +1°C° 0 mm 5 mps 757 mmHg 85%
    03:00 +1°C° 0 mm 5 mps 757 mmHg 84%
    04:00 0°C° 0 mm 5 mps 758 mmHg 84%
    05:00 0°C° 0 mm 4 mps 758 mmHg 85%
    06:00 -1°C° 0 mm 4 mps 759 mmHg 86%
    07:00 0°C° 0 mm 4 mps 759 mmHg 77%
    08:00 +3°C° 0 mm 4 mps 760 mmHg 69%
    09:00 +4°C° 0 mm 4 mps 760 mmHg 61%
    10:00 +5°C° 0 mm 3 mps 761 mmHg 57%
    11:00 +7°C° 0 mm 3 mps 761 mmHg 53%
    12:00 +8°C° 0 mm 2 mps 761 mmHg 49%
    13:00 +9°C° 0 mm 2 mps 762 mmHg 48%
    14:00 +9°C° 0 mm 2 mps 762 mmHg 48%
    15:00 +9°C° 0 mm 2 mps 762 mmHg 47%
    16:00 +8°C° 0 mm 2 mps 762 mmHg 53%
    17:00 +7°C° 0 mm 2 mps 762 mmHg 59%
    18:00 +6°C° 0 mm 2 mps 762 mmHg 65%
    19:00 +5°C° 0 mm 2 mps 762 mmHg 69%
    20:00 +3°C° 0 mm 3 mps 763 mmHg 73%
    21:00 +2°C° 0 mm 3 mps 763 mmHg 76%
    22:00 +2°C° 0 mm 3 mps 763 mmHg 76%
    23:00 +2°C° 0 mm 3 mps 763 mmHg 76%
    Mostrar más